Temp
19 19 20 20 21 21 21 22 22 22 23 23 23 24 25 25 26 26 27 27 28 28 28 29 30 31 31 31 33 33 27 26 27 28 28 30 29 27 27 26 26 26 25 24 23
19 19 20 20 21 21 21 22 22 22 23 23 23 24 25 25 26 27 28 28 28 29 29 29 30 31 31 33 32 31 27 30 31 30 29 28 28 26 25 25 26 26 25 24 23
19 19 20 20 21 21 22 22 22 22 23 23 23 24 24 25 26 28 29 29 29 28 29 29 30 30 31 32 33 32 29 31 31 31 30 29 28 27 25 25 25 25 25 24 23
19 19 20 21 21 21 22 22 22 23 23 23 24 24 24 25 25 29 29 29 29 29 29 29 30 30 29 30 32 31 32 32 31 30 30 29 30 28 27 26 26 25 25 25 23
19 19 20 20 21 21 22 22 22 23 23 23 24 24 25 25 26 28 29 29 29 29 30 30 31 32 31 32 32 32 32 33 33 32 29 29 29 28 27 26 26 26 25 25 25
19 19 20 20 21 21 22 22 22 23 23 23 24 24 24 23 28 29 29 29 29 29 30 31 33 33 32 31 32 34 34 33 31 29 30 28 28 29 27 26 26 26 26 26 25
19 19 20 20 20 21 22 22 22 22 23 23 23 23 23 26 28 28 29 29 29 30 30 31 32 32 32 32 34 34 32 33 31 29 27 28 25 27 28 27 26 26 26 26 25
18 19 20 20 20 21 21 22 22 22 22 22 23 22 23 28 28 28 29 29 30 30 31 31 32 32 32 34 35 32 32 30 30 29 28 28 25 28 29 28 28 27 27 26 26
18 19 20 20 21 21 21 22 22 22 22 22 22 22 22 28 28 28 29 29 30 30 31 31 32 32 32 30 30 32 29 29 31 29 29 27 26 28 29 28 28 28 27 27 26
18 19 20 20 21 21 21 22 22 22 21 22 22 21 25 27 29 29 29 29 30 31 31 32 32 28 28 29 27 30 30 31 30 30 29 28 28 29 29 29 28 28 28 28 27
18 19 20 20 21 21 21 21 21 21 21 24 25 26 28 29 29 29 29 29 30 31 28 32 28 27 29 30 33 31 32 31 31 32 32 29 28 29 30 29 28 26 27 27 27
18 19 20 20 21 21 21 21 24 24 25 26 26 25 27 29 30 30 30 30 30 28 29 28 27 30 32 32 32 32 31 31 32 33 32 28 28 29 30 29 26 27 27 27 24
18 19 20 20 21 21 22 23 24 24 24 26 27 27 28 29 30 30 30 31 30 28 29 28 30 33 32 31 32 31 30 32 31 32 32 31 28 29 30 30 26 28 29 27 25
18 19 20 20 21 21 23 24 24 24 21 26 27 27 28 30 29 30 31 31 30 29 29 29 31 32 32 32 31 28 33 33 33 30 27 30 25 26 28 28 24 23 26 28 26
18 19 20 20 21 21 23 24 24 25 21 29 28 30 30 30 31 31 31 31 29 30 30 29 31 31 31 31 32 31 34 32 33 30 29 29 26 26 27 27 23 24 27 26 29
19 19 20 20 21 23 24 24 25 22 22 30 30 29 29 31 30 32 32 32 32 30 30 30 34 33 31 33 32 35 33 32 31 28 24 27 28 26 27 27 26 25 24 26 27
19 20 20 21 22 22 23 24 21 21 30 29 29 29 28 29 30 30 29 28 27 28 27 30 31 32 34 32 31 32 30 24 25 24 24 29 25 25 24 24 26 24 22 23 24
19 20 20 22 21 22 23 22 21 27 28 31 30 29 29 30 30 30 29 27 29 28 27 26 27 31 33 30 30 30 28 23 27 26 27 26 23 23 22 24 25 23 23 23 20
19 20 21 22 21 22 22 20 23 27 32 32 30 28 29 30 30 29 28 28 29 29 27 28 28 32 33 33 33 31 28 28 29 29 27 21 22 23 23 25 25 25 27 21 22
19 18 22 22 22 21 20 20 25 29 30 30 29 29 28 30 30 28 28 30 31 32 30 29 29 31 33 33 33 32 30 27 24 27 26 24 21 23 22 26 25 25 27 27 22
19 19 23 22 22 21 20 23 26 28 30 30 30 30 30 30 30 30 29 31 33 32 30 32 30 30 32 29 27 26 27 29 26 26 26 25 24 22 21 21 23 23 26 27 23
18 21 23 22 21 23 22 24 27 28 29 31 32 31 31 31 30 30 31 31 35 33 32 33 25 24 26 28 29 26 26 27 24 26 25 23 19 22 19 20 22 18 17 20 19
18 22 24 23 21 22 24 26 28 28 29 31 32 32 32 32 30 31 31 33 34 30 29 30 25 21 22 27 28 25 26 26 28 25 26 24 21 21 18 20 18 19 19 19 20
18 22 24 24 24 24 25 26 27 30 31 32 30 31 30 30 29 30 31 33 33 31 31 31 26 24 22 23 23 25 27 26 25 24 26 23 20 18 18 19 18 16 16 18 23
18 20 23 22 23 24 25 26 27 28 31 32 29 31 26 24 28 24 30 31 31 31 32 27 24 24 25 26 26 26 26 26 25 26 27 23 19 20 19 18 17 17 19 19 23
18 17 19 21 25 25 24 25 27 28 29 29 28 22 24 24 24 23 25 22 23 27 31 29 23 26 25 26 25 26 27 27 27 28 28 26 25 21 20 20 16 18 22 21 19
18 18 19 21 24 26 27 28 26 25 24 25 26 21 19 23 25 24 24 23 23 22 22 27 23 24 24 24 25 23 26 26 26 27 28 24 26 24 19 18 17 18 20 17 18
Height
1512 1512 1512 1512 1511 1511 1511 1511 1510 1510 1510 1509 1508 1506 1504 1501 1499 1497 1495 1495 1493 1491 1489 1486 1483 1481 1480 1480 1478 1479 1493 1505 1502 1500 1498 1495 1497 1504 1506 1507 1509 1510 1516 1521 1529
1511 1511 1510 1510 1510 1510 1509 1509 1509 1509 1509 1508 1507 1505 1503 1500 1497 1494 1494 1493 1492 1490 1488 1486 1481 1478 1479 1478 1479 1480 1496 1493 1486 1488 1493 1494 1494 1498 1504 1511 1510 1513 1520 1524 1530
1509 1509 1509 1508 1508 1508 1508 1507 1507 1507 1507 1506 1506 1505 1503 1500 1497 1491 1491 1491 1490 1490 1488 1485 1482 1481 1480 1477 1478 1478 1492 1485 1487 1486 1488 1492 1496 1497 1501 1512 1509 1513 1521 1526 1529
1508 1507 1507 1506 1506 1506 1506 1506 1505 1505 1505 1504 1503 1502 1501 1500 1500 1491 1490 1490 1490 1489 1487 1485 1482 1480 1482 1484 1479 1482 1481 1482 1484 1488 1490 1491 1494 1496 1502 1509 1512 1515 1520 1526 1529
1507 1506 1505 1504 1504 1504 1504 1504 1503 1503 1503 1503 1502 1500 1500 1498 1492 1490 1490 1489 1488 1489 1486 1483 1480 1480 1480 1482 1479 1480 1481 1481 1482 1486 1494 1494 1498 1501 1506 1511 1517 1520 1523 1525 1528
1506 1504 1503 1503 1502 1502 1502 1502 1502 1502 1502 1501 1500 1499 1499 1498 1488 1490 1490 1489 1488 1489 1485 1484 1481 1480 1479 1480 1479 1477 1478 1479 1487 1488 1492 1503 1503 1504 1509 1512 1516 1519 1522 1525 1528
1505 1503 1502 1501 1500 1500 1500 1500 1500 1500 1500 1499 1499 1498 1496 1489 1487 1488 1490 1490 1488 1487 1486 1484 1482 1482 1479 1476 1474 1476 1481 1478 1485 1487 1496 1494 1509 1507 1510 1511 1514 1519 1523 1525 1528
1504 1501 1500 1499 1499 1498 1498 1498 1498 1498 1499 1498 1498 1497 1490 1485 1486 1486 1486 1487 1488 1486 1486 1484 1483 1482 1478 1474 1473 1478 1480 1496 1486 1487 1494 1491 1517 1509 1510 1509 1512 1518 1521 1524 1527
1502 1500 1498 1497 1497 1496 1496 1496 1496 1496 1497 1497 1497 1496 1487 1482 1482 1484 1485 1488 1487 1486 1485 1484 1483 1482 1478 1479 1487 1478 1503 1497 1490 1482 1489 1492 1511 1504 1507 1508 1510 1514 1517 1521 1525
1501 1498 1496 1495 1495 1495 1495 1495 1494 1495 1495 1495 1496 1499 1481 1476 1479 1481 1484 1486 1486 1485 1485 1483 1481 1483 1482 1486 1514 1495 1494 1488 1492 1484 1485 1491 1500 1499 1503 1507 1509 1512 1516 1519 1522
1499 1496 1494 1493 1493 1493 1494 1494 1497 1496 1493 1487 1484 1479 1475 1475 1477 1479 1482 1484 1484 1484 1484 1480 1490 1497 1483 1476 1474 1478 1479 1482 1481 1474 1480 1488 1494 1495 1498 1504 1509 1512 1518 1519 1518
1497 1494 1492 1491 1491 1491 1492 1491 1489 1492 1485 1480 1479 1479 1475 1475 1474 1476 1480 1484 1483 1485 1479 1485 1495 1480 1475 1471 1474 1472 1482 1481 1476 1472 1478 1487 1490 1489 1492 1499 1505 1507 1510 1514 1521
1495 1492 1490 1489 1489 1490 1490 1488 1490 1488 1485 1473 1470 1472 1472 1474 1473 1474 1477 1479 1480 1484 1480 1488 1481 1473 1477 1475 1476 1476 1480 1477 1483 1473 1472 1480 1495 1494 1489 1493 1500 1503 1505 1513 1518
1492 1490 1488 1488 1491 1489 1487 1487 1490 1491 1494 1470 1464 1469 1470 1471 1471 1472 1473 1477 1477 1482 1477 1478 1470 1474 1474 1477 1474 1492 1469 1472 1472 1486 1511 1477 1529 1499 1487 1493 1496 1498 1504 1506 1516
1489 1487 1486 1487 1487 1487 1487 1488 1489 1491 1519 1450 1460 1460 1463 1466 1462 1467 1470 1473 1475 1474 1474 1480 1469 1472 1476 1472 1465 1476 1462 1470 1472 1483 1490 1489 1511 1497 1486 1493 1498 1500 1494 1506 1514
1486 1484 1484 1485 1485 1487 1487 1487 1491 1501 1507 1455 1453 1457 1460 1461 1463 1463 1468 1471 1470 1471 1468 1467 1461 1461 1465 1461 1461 1459 1467 1470 1475 1489 1526 1496 1496 1499 1493 1488 1494 1497 1495 1506 1522
1483 1481 1482 1482 1484 1486 1487 1489 1500 1505 1444 1456 1456 1455 1459 1461 1461 1461 1467 1474 1482 1489 1488 1470 1465 1457 1457 1466 1462 1464 1479 1525 1528 1529 1530 1484 1502 1506 1494 1493 1499 1508 1508 1503 1511
1480 1479 1479 1480 1483 1485 1485 1489 1506 1459 1451 1439 1447 1455 1463 1454 1456 1460 1469 1479 1467 1470 1481 1492 1496 1461 1453 1463 1471 1471 1482 1521 1529 1527 1514 1491 1522 1512 1495 1490 1490 1501 1510 1512 1505
1478 1477 1475 1478 1482 1485 1487 1497 1477 1453 1437 1440 1447 1461 1460 1451 1455 1460 1467 1472 1463 1460 1484 1482 1481 1448 1451 1452 1457 1470 1487 1469 1490 1484 1503 1523 1511 1502 1487 1484 1480 1482 1484 1503 1506
1477 1476 1473 1475 1480 1484 1487 1484 1464 1447 1441 1442 1454 1452 1464 1453 1456 1460 1465 1454 1455 1449 1448 1461 1478 1456 1451 1451 1453 1459 1459 1494 1497 1518 1520 1516 1523 1511 1496 1481 1477 1475 1482 1479 1499
1477 1476 1469 1473 1479 1483 1485 1471 1459 1447 1445 1444 1441 1447 1445 1447 1446 1454 1454 1443 1441 1441 1443 1447 1462 1467 1454 1470 1480 1478 1480 1472 1481 1491 1514 1528 1514 1494 1495 1487 1483 1485 1484 1472 1485
1477 1476 1471 1473 1478 1475 1474 1467 1457 1446 1440 1434 1430 1433 1435 1435 1443 1445 1445 1438 1432 1434 1447 1444 1467 1491 1480 1463 1464 1471 1482 1478 1506 1501 1490 1501 1531 1495 1488 1487 1489 1493 1484 1488 1496
1477 1473 1470 1472 1476 1471 1465 1460 1456 1447 1439 1433 1430 1425 1422 1429 1444 1435 1435 1428 1430 1438 1452 1450 1474 1510 1502 1475 1464 1478 1476 1477 1469 1474 1487 1510 1517 1494 1501 1497 1496 1485 1483 1486 1486
1479 1471 1469 1469 1466 1464 1463 1456 1450 1439 1434 1430 1428 1424 1426 1430 1426 1437 1437 1432 1436 1442 1445 1448 1468 1484 1514 1496 1486 1486 1477 1477 1485 1497 1487 1500 1506 1504 1507 1504 1506 1499 1512 1494 1494
1477 1471 1469 1465 1463 1462 1459 1454 1449 1441 1429 1427 1430 1426 1443 1450 1438 1453 1435 1434 1437 1443 1446 1455 1485 1480 1478 1472 1473 1475 1478 1481 1488 1481 1488 1496 1505 1498 1502 1502 1501 1500 1504 1505 1494
1478 1476 1473 1461 1452 1455 1454 1452 1447 1440 1434 1434 1437 1450 1445 1460 1453 1464 1452 1454 1467 1453 1449 1449 1483 1476 1486 1478 1480 1482 1477 1477 1474 1475 1472 1477 1485 1481 1496 1502 1504 1506 1506 1502 1516
1474 1474 1471 1458 1454 1452 1448 1444 1445 1445 1447 1450 1447 1442 1455 1461 1463 1447 1453 1454 1459 1469 1467 1456 1474 1483 1499 1487 1489 1505 1481 1475 1475 1475 1468 1490 1481 1479 1497 1500 1502 1501 1508 1513 1515
Wind_Speed
6 7 7 7 7 8 8 8 8 8 9 10 11 12 14 15 12 13 8 6 10 13 14 17 18 23 17 23 5 1 4 4 7 9 4 8 13 24 17 17 17 12 29 32 37
6 7 8 8 8 9 9 10 10 9 10 10 11 12 14 17 17 14 9 11 14 15 14 16 21 22 19 9 6 4 5 8 9 9 9 16 12 13 9 9 23 27 33 33 34
7 7 8 9 10 10 11 11 11 11 10 11 11 11 13 16 18 10 7 10 10 11 12 18 18 23 21 9 3 2 3 7 9 20 18 18 4 4 20 8 24 33 32 31 34
8 7 8 9 10 11 11 12 11 11 11 12 12 12 13 12 4 3 4 8 10 10 15 20 19 25 3 5 11 6 9 10 11 19 14 10 13 16 17 26 27 30 29 30 35
10 9 9 9 10 11 11 12 12 12 11 12 12 13 12 8 15 8 10 8 10 10 16 20 28 7 1 5 15 7 8 10 18 20 19 18 18 20 30 28 25 24 23 26 30
12 11 10 9 10 10 11 12 12 11 11 12 12 12 11 9 3 9 6 5 10 11 21 23 17 19 16 7 6 13 10 13 26 32 17 17 9 16 26 32 28 25 23 20 28
14 12 11 10 9 10 10 11 11 10 10 11 11 12 13 23 7 6 8 11 10 15 21 19 14 15 20 11 14 12 4 5 20 20 10 26 7 9 26 27 28 27 24 22 28
15 14 12 10 9 9 10 9 9 9 9 10 9 10 13 18 15 15 9 14 13 12 11 13 15 16 17 12 2 8 4 3 10 14 16 11 11 9 22 24 25 27 26 24 28
16 15 12 10 9 9 8 8 8 7 8 8 6 7 14 5 16 19 12 14 12 15 15 16 15 17 22 5 4 3 6 10 7 14 12 5 9 17 24 24 25 28 28 21 29
17 16 12 10 9 8 7 7 7 7 7 8 9 8 15 17 13 15 17 14 18 18 18 20 17 5 5 7 5 2 6 7 5 11 15 10 14 14 24 21 25 28 28 25 30
17 17 12 9 8 7 6 6 5 4 13 13 11 18 12 6 13 16 18 16 19 22 7 19 3 5 7 10 7 14 4 11 11 7 6 14 17 15 19 23 21 15 16 15 33
18 17 12 8 7 8 10 9 8 14 11 19 24 28 28 15 6 17 18 18 16 8 10 7 8 7 16 17 8 6 7 6 10 9 5 11 9 17 14 21 30 28 26 20 11
19 17 10 7 6 7 12 16 6 9 7 17 25 26 20 13 12 13 20 23 8 9 11 8 11 9 12 10 7 6 7 2 8 8 7 3 5 13 11 15 35 19 25 20 11
19 15 8 4 4 4 7 2 3 4 4 7 14 12 21 17 15 19 21 19 8 11 12 9 14 8 12 15 8 8 4 7 5 3 4 6 3 7 13 12 20 25 28 22 24
19 13 7 8 4 8 5 4 4 8 4 12 14 11 17 20 10 19 22 23 11 10 6 11 10 11 12 10 7 6 2 6 5 3 4 9 4 8 11 8 18 24 29 16 25
18 10 7 10 12 3 3 3 4 1 7 6 12 10 9 15 18 22 22 18 17 9 11 10 18 5 8 7 9 4 4 4 4 1 4 9 3 4 11 8 14 24 30 33 16
15 8 9 12 10 4 4 6 2 5 5 12 11 13 10 10 14 10 11 9 7 3 6 9 10 7 6 3 9 5 3 3 3 1 7 5 8 2 8 13 12 14 23 23 34
11 8 11 13 11 6 4 2 6 11 11 12 13 13 12 10 8 8 8 8 14 12 5 7 8 9 6 11 9 8 8 5 5 3 5 10 2 3 5 9 6 11 4 20 47
9 8 11 10 16 10 3 5 6 6 8 11 14 11 10 13 10 9 10 9 11 13 9 3 7 7 8 6 2 6 4 11 6 5 3 4 2 7 6 6 14 18 27 18 33
8 7 10 10 18 12 4 8 7 13 21 15 10 11 10 12 9 11 13 15 17 16 9 9 1 7 11 8 9 5 5 6 4 3 1 1 3 5 6 7 8 7 15 20 4
7 4 7 17 14 10 6 6 13 28 29 20 11 10 12 8 10 12 12 18 21 12 10 4 2 5 4 7 5 6 6 5 2 3 3 2 2 4 4 7 8 9 20 21 11
1 3 16 15 9 7 8 7 10 28 36 16 6 7 10 11 10 9 10 10 21 6 6 4 5 5 5 5 7 8 5 3 3 9 4 6 4 6 9 1 4 17 24 23 45
4 10 13 20 5 8 11 18 25 25 26 12 7 8 5 7 7 4 4 15 15 7 3 5 2 4 9 7 5 6 5 12 8 1 2 4 4 4 7 1 18 19 35 31 10
4 3 7 20 20 13 11 13 19 27 18 13 10 11 10 8 6 6 4 6 15 8 5 5 5 7 6 8 3 6 8 10 6 4 3 3 5 6 7 7 17 30 20 29 16
3 4 9 4 11 12 15 14 19 16 20 16 10 11 11 8 11 11 1 4 11 6 2 7 5 8 6 7 4 3 3 12 15 13 3 8 10 15 12 9 27 33 28 25 20
2 2 12 17 21 13 14 15 12 15 5 5 6 21 24 10 4 1 3 5 7 8 3 2 7 4 4 2 8 7 6 9 15 17 4 9 7 13 21 16 8 21 22 16 8
8 10 7 13 11 6 8 5 2 5 12 20 20 17 17 7 4 25 22 17 5 3 5 3 7 5 5 3 7 7 13 2 9 13 7 7 5 13 16 17 23 28 19 27 22
Wind_Direction
302 289 291 293 293 293 292 295 298 303 310 315 319 320 317 314 303 292 258 284 287 290 292 311 321 300 277 272 56 74 68 130 167 116 137 120 106 107 105 134 151 146 140 136 148
306 293 289 288 286 285 288 291 294 299 304 308 312 315 314 314 310 270 245 261 280 278 292 305 309 331 272 329 130 36 68 65 116 112 102 63 103 134 106 83 111 128 138 144 151
312 295 290 289 285 283 284 287 291 296 300 304 307 308 310 319 322 260 276 253 268 265 289 304 303 311 312 82 251 80 129 105 69 110 103 116 103 110 128 167 143 130 142 149 150
319 302 292 287 284 283 282 283 286 291 296 300 303 304 308 317 293 335 331 288 258 274 290 300 291 283 81 87 242 121 134 127 137 120 108 102 80 110 126 123 130 139 147 159 160
323 309 295 286 284 284 283 282 283 287 292 295 299 303 312 307 259 282 304 284 254 271 286 295 296 65 345 184 238 102 136 137 130 116 107 104 96 111 117 123 134 138 157 170 161
327 312 300 291 285 283 281 280 280 284 288 291 294 297 302 270 208 235 311 292 278 275 284 293 311 336 196 122 278 149 170 154 108 116 124 66 74 104 129 133 142 153 160 167 170
333 318 305 295 288 281 277 277 278 280 283 285 290 291 277 255 233 275 287 274 260 268 287 311 347 326 312 285 171 138 220 165 126 115 116 110 357 114 139 147 152 159 168 175 167
337 325 310 298 287 281 277 273 272 274 277 280 285 291 269 265 260 257 259 276 263 278 279 299 313 305 290 286 217 173 176 102 142 123 161 124 146 156 162 156 157 161 167 178 165
338 331 315 299 284 279 277 269 264 264 265 269 277 286 272 299 223 221 245 257 253 257 264 275 283 283 292 292 281 241 121 228 169 147 145 107 154 169 177 167 155 158 167 174 171
338 333 319 300 282 274 265 254 253 250 249 254 226 291 257 230 223 231 232 236 253 257 248 253 263 274 298 267 216 29 171 175 195 166 170 151 157 171 184 165 160 162 163 167 168
336 332 320 298 280 264 241 238 275 237 221 215 219 214 288 200 217 216 213 225 247 262 229 251 251 285 326 300 140 238 218 132 186 197 182 141 167 172 185 173 144 116 138 175 175
333 331 319 295 273 254 232 218 244 338 283 273 252 250 272 277 225 204 194 213 229 244 251 276 227 127 283 295 267 230 277 202 164 157 173 173 171 172 190 178 147 130 171 221 289
331 328 314 289 269 257 255 245 258 355 297 288 238 234 247 249 245 221 201 210 202 240 254 226 240 230 249 275 267 265 252 206 160 182 191 174 195 170 195 143 143 155 166 198 252
328 323 305 266 243 232 273 70 274 326 299 255 183 232 239 224 241 204 211 205 234 223 239 243 247 225 211 243 216 251 14 321 219 85 212 178 226 206 181 155 157 157 161 189 209
325 314 282 217 205 203 347 283 277 265 290 147 171 190 199 201 184 186 199 212 234 239 202 249 239 224 254 247 237 240 268 256 267 218 225 278 140 222 174 178 165 158 175 171 174
321 301 256 225 224 170 127 55 194 254 240 176 165 175 193 201 236 175 187 217 242 258 271 251 279 208 220 219 266 237 120 310 292 215 331 260 215 223 170 177 147 168 159 150 192
316 285 238 225 182 198 225 278 219 232 242 145 164 165 181 208 229 155 179 200 219 229 278 273 271 275 214 269 262 255 106 307 338 341 227 174 61 126 22 3 20 158 169 160 168
311 278 242 220 194 154 161 211 247 246 241 159 162 179 187 213 187 155 176 193 236 241 247 198 267 213 195 204 209 188 177 177 235 172 250 46 16 264 314 314 8 100 335 234 177
303 280 253 212 189 171 244 220 223 230 334 173 163 177 210 221 145 153 188 211 225 226 219 240 254 189 210 228 154 275 210 226 254 278 91 177 204 298 310 344 358 341 331 67 167
297 292 247 169 187 181 241 248 269 279 298 312 159 174 207 215 173 170 192 211 225 226 206 251 17 303 219 195 248 199 248 3 345 327 258 1 173 220 246 195 223 278 285 293 261
311 286 158 179 175 191 226 248 271 274 276 285 188 183 218 199 189 193 197 231 211 230 210 245 139 280 75 48 33 347 300 272 224 165 94 209 281 321 214 227 239 330 298 277 292
351 260 166 167 178 219 238 250 268 279 286 289 299 277 209 210 189 219 208 210 186 181 156 218 92 87 286 313 84 79 3 345 84 283 179 158 283 286 237 206 337 7 324 298 310
283 263 187 184 217 234 239 250 261 271 278 277 263 301 211 222 184 182 88 38 97 72 47 355 46 57 348 341 16 65 331 319 342 6 358 86 245 247 300 269 70 17 341 323 351
315 269 169 210 240 268 290 270 254 268 271 292 299 300 309 321 117 147 133 104 84 88 79 60 48 126 167 225 129 289 317 317 315 37 335 157 183 242 214 248 109 96 109 281 84
227 283 310 228 232 241 262 283 287 288 274 272 298 263 20 26 64 356 33 116 99 108 64 118 127 133 196 230 187 259 297 320 318 308 43 163 180 195 191 190 155 159 172 278 105
301 355 319 297 285 216 236 261 289 295 316 331 49 73 45 34 128 137 352 70 36 317 175 256 177 121 223 23 314 325 346 301 303 305 46 80 68 178 173 137 130 158 166 128 206
337 344 331 283 304 282 241 232 240 331 39 29 91 92 77 295 148 105 98 71 76 160 333 291 149 154 183 39 327 312 239 109 293 294 84 91 113 104 157 171 186 188 186 187 212